Weather History for Douglas, WY

Change the Weather History Date:

Wednesday, September 18, 2013

  Actual Average Record
Temperature  
Mean Temperature 67 °F 57 °F  
Max Temperature 86 °F 74 °F 91 °F (2004)
Min Temperature 48 °F 41 °F 32 °F (2003)
Degree Days  
Heating Degree Days 0 8  
Month to date heating degree days 25 94  
Since 1 July heating degree days 25 135  
Cooling Degree Days 2 0  
Month to date cooling degree days 86 27  
Year to date cooling degree days 737 485  
Growing Degree Days 18 (Base 50)    
Moisture  
Dew Point 41 °F    
Average Humidity 49    
Maximum Humidity 83    
Minimum Humidity 15    
Precipitation  
Precipitation T in 0.04 in 0.25 in (2002)
Month to date precipitation 0.14 0.71  
Year to date precipitation 6.36 10.76  
Sea Level Pressure  
Sea Level Pressure 29.68 in    
Wind  
Wind Speed 12 mph (West)    
Max Wind Speed 31 mph    
Max Gust Speed 38 mph    
Visibility 10 miles    
Events Rain , Thunderstorm    
T = Trace of Precipitation, MM = Missing Value Source: NWS Daily Summary

Daily Weather History Graph

Daily Weather History Graph

Search for Another Location

Airport:

Trip Planner

Search our weather history database for the weather conditions in past years. The results will help you decide how hot, cold, wet, or windy it might be!

Date:

Astronomy

Sep. 18, 2013 Rise Set
Actual Time 6:44 AM MDT 7:05 PM MDT
Civil Twilight 6:16 AM MDT 7:33 PM MDT
Nautical Twilight 5:43 AM MDT 8:06 PM MDT
Astronomical Twilight 5:08 AM MDT 8:41 PM MDT
Moon 6:29 PM MDT (9/18) 5:49 AM MDT (9/18)
Length of Visible Light 13h 17m
Length of Day
12h 20m
Waxing Gibbous, 99% of the Moon is Illuminated
Sep 18
Waxing Gibbous
Sep 19
Full
Sep 26
Last Quarter
Oct 4
New
Oct 11
First Quarter

Hourly Weather History & Observations

Time (MDT) Temp. Dew Point Humidity Pressure Visibility Wind Dir Wind Speed Gust Speed Precip Events Conditions
12:53 AM 66.9 °F 43.0 °F 42% 29.59 in 10.0 mi Calm Calm - N/A   Clear
1:53 AM 75.0 °F 37.9 °F 26% 29.55 in 10.0 mi WSW 12.7 mph 23.0 mph N/A   Mostly Cloudy
2:53 AM 73.0 °F 44.1 °F 35% 29.60 in 10.0 mi WNW 15.0 mph 21.9 mph N/A   Clear
3:53 AM 61.0 °F 46.9 °F 60% 29.64 in 10.0 mi NW 11.5 mph - N/A   Scattered Clouds
4:37 AM 59.0 °F 48.2 °F 67% 29.83 in 10.0 mi WNW 4.6 mph - 0.00 in Thunderstorm Mostly Cloudy
4:53 AM 57.9 °F 50.0 °F 75% 29.65 in 7.0 mi Calm Calm - 0.00 in Rain Light Rain
5:53 AM 54.0 °F 48.9 °F 83% 29.67 in 10.0 mi NW 11.5 mph - 0.00 in   Clear
6:53 AM 52.0 °F 46.9 °F 83% 29.72 in 10.0 mi East 6.9 mph - N/A   Clear
7:53 AM 57.9 °F 48.9 °F 72% 29.70 in 10.0 mi ESE 3.5 mph - N/A   Clear
8:53 AM 62.1 °F 48.0 °F 60% 29.70 in 10.0 mi Calm Calm - N/A   Clear
9:53 AM 68.0 °F 46.9 °F 47% 29.67 in 10.0 mi Variable 4.6 mph - N/A   Clear
10:53 AM 72.0 °F 48.0 °F 43% 29.64 in 10.0 mi SSE 8.1 mph - N/A   Clear
11:53 AM 82.0 °F 46.0 °F 28% 29.60 in 10.0 mi South 18.4 mph 25.3 mph N/A   Clear
12:05 PM 82.4 °F 42.8 °F 25% 29.79 in 10.0 mi SW 19.6 mph 25.3 mph N/A   Partly Cloudy
12:53 PM 82.0 °F 34.0 °F 18% 29.57 in 10.0 mi WSW 19.6 mph 28.8 mph N/A   Clear
1:53 PM 82.0 °F 32.0 °F 16% 29.56 in 10.0 mi West 21.9 mph 31.1 mph N/A   Partly Cloudy
2:53 PM 84.0 °F 32.0 °F 15% 29.57 in 10.0 mi West 21.9 mph 31.1 mph N/A   Partly Cloudy
3:53 PM 81.0 °F 37.9 °F 21% 29.61 in 10.0 mi West 23.0 mph 34.5 mph N/A   Clear
4:53 PM 80.1 °F 34.0 °F 19% 29.62 in 10.0 mi West 27.6 mph 33.4 mph N/A   Clear
5:53 PM 75.9 °F 35.1 °F 23% 29.68 in 10.0 mi West 19.6 mph 28.8 mph N/A   Clear
6:53 PM 70.0 °F 33.1 °F 26% 29.73 in 10.0 mi WNW 11.5 mph - N/A   Clear
7:53 PM 64.9 °F 28.0 °F 25% 29.74 in 10.0 mi WNW 12.7 mph - N/A   Clear
8:53 PM 63.0 °F 30.0 °F 29% 29.78 in 10.0 mi West 15.0 mph - N/A   Clear
9:53 PM 57.9 °F 41.0 °F 53% 29.83 in 10.0 mi North 16.1 mph - N/A   Clear
10:53 PM 54.0 °F 39.9 °F 59% 29.86 in 10.0 mi NNW 10.4 mph - N/A   Clear
11:53 PM 50.0 °F 39.0 °F 66% 29.86 in 10.0 mi Calm Calm - N/A   Clear